Regional Weather Roundup
Issued by NWS Cleveland, OH

Home | Current Version | Previous Version | Graphics & Text | Print | Product List | Glossary On
Versions: 1 2 3 4 5 6 7 8 9 10 11 12 13 14 15 16 17 18 19 20 21 22 23 24 25 26 27 28 29 30 31 32 33 34 35 36 37 38 39 40 41 42 43 44 45 46 47 48 49 50
080
ASUS41 KCLE 140910
RWRCLE
OHIO REGIONAL WEATHER ROUNDUP
NATIONAL WEATHER SERVICE CLEVELAND, OH
400 AM EST SUN FEB 14 2016

NOTE: "FAIR" INDICATES FEW OR NO CLOUDS BELOW 12,000 FEET WITH NO
SIGNIFICANT WEATHER AND/OR OBSTRUCTIONS TO VISIBILITY.

OHZ001>008-015>018-024>027-034-035-043-044-141000-
   NORTHWEST OHIO

CITY           SKY/WX    TMP DP  RH WIND       PRES   REMARKS
DEFIANCE       CLOUDY    13   6  74 CALM      30.48F
FINDLAY        CLOUDY     6   1  80 CALM      30.46S
TOLEDO EXPRESS CLOUDY     5   1  83 CALM      30.48S
TOLEDO EXEC    CLOUDY     9   0  67 CALM      30.49S
LIMA           CLOUDY     4   0  83 CALM      30.44F
$$

OHZ009>014-019>023-028>033-038-089-141000-
   NORTHEAST OHIO

CITY           SKY/WX    TMP DP  RH WIND       PRES   REMARKS
CLE-HOPKINS    CLOUDY     4   0  83 S5        30.49S WCI  -5
CLE-LAKEFRONT  PTCLDY    14  -1  51 NW9       30.47S WCI   2
CUY CO. ARPT   NOT AVBL
LORAIN-ELYRIA  PTCLDY    -2  -6  83 SW3       30.47S
ASHTABULA      CLOUDY    10   0  63 W3        30.43R
AKRON-CANTON   CLOUDY     0  -5  79 CALM      30.42S
WOOSTER        CLOUDY     1  -2  87 CALM      30.44S
MANSFIELD      CLOUDY     3   0  87 CALM      30.42R
YOUNGSTOWN     CLOUDY     0  -4  83 SW6       30.42R WCI -12
$$

OHZ042-051>053-060>062-070>072-077>081-141000-
  SOUTHWEST OHIO

CITY           SKY/WX    TMP DP  RH WIND       PRES   REMARKS
CINC-COVINGTON CLOUDY    13   3  64 E9        30.45R WCI   1
CINC-LUNKEN    PTCLDY    12   5  73 NE3       30.51R
HAMILTON       CLOUDY    12   2  64 E3        30.49S
DAYTON         CLOUDY     6   0  76 NE5       30.44F WCI  -3
WRIGHT-PAT AFB MOCLDY     5  -1  76 NE5       30.45F WCI  -4
DAYTON GENERAL CLOUDY     7   0  73 E5        30.43F WCI  -2
WILMINGTON     CLOUDY     3  -2  79 NE5       30.43F WCI  -6
$$

OHZ036-037-039>041-045>050-054>059-063>069-073>076-082>088-141000-
  CENTRAL AND SOUTHEAST OHIO

CITY           SKY/WX    TMP DP  RH WIND       PRES   REMARKS
COLUMBUS       CLOUDY     5  -1  76 CALM      30.47S
OSU AIRPORT    CLOUDY     4  -1  80 CALM      30.46S
BOLTON FIELD   CLOUDY     4  -1  80 CALM      30.46F
RICKENBACK AFB CLOUDY     2  -3  81 CALM      30.48S
NEWARK         CLOUDY     1  -5  75 SW3       30.46S
MARION         CLOUDY     5  -1  76 CALM      30.45S
LANCASTER      CLOUDY     0  -6  76 CALM      30.47S
ZANESVILLE     CLOUDY     2  -3  80 S3        30.46S
NEW PHILLY     CLOUDY     2 N/A N/A CALM      30.47S
$$




USA.gov is the U.S. government's official web portal to all federal, state and local government web resources and services.